| time (UTC) | temp F | wind direction | speed MPH | gust MPH | rain 1hr in | rain 24hr in | rain mn in | humidity % | barometer mb |
| 20260901204702 | 64 | 152 | 1.0 | 9.0 | 0.06 | 0.59 | 0.59 | 93 | 1017.5 |
| 20260901203702 | 64 | 112 | 0.0 | 3.0 | 0.06 | 0.58 | 0.58 | 93 | 1017.0 |
| 20260901202704 | 64 | 127 | 0.0 | 0.0 | 0.06 | 0.57 | 0.57 | 94 | 1017.0 |
| 20260901201702 | 64 | 41 | 0.0 | 2.0 | 0.07 | 0.56 | 0.56 | 93 | 1017.0 |
| 20260901200703 | 64 | 41 | 1.0 | 6.0 | 0.08 | 0.55 | 0.55 | 94 | 1017.0 |
| 20260901195652 | 65 | 91 | 0.0 | 3.0 | 0.09 | 0.54 | 0.54 | 94 | 1017.0 |
| 20260901194652 | 65 | 46 | 0.0 | 2.0 | 0.13 | 0.53 | 0.53 | 94 | 1017.0 |
| 20260901194129 | 64 | 47 | 0.0 | 4.0 | 0.20 | 0.52 | 0.52 | 93 | 1017.0 |
| 20260901192653 | 64 | 176 | 0.0 | 4.0 | 0.23 | 0.50 | 0.51 | 93 | 1017.0 |
| 20260901191652 | 64 | 150 | 0.0 | 2.0 | 0.28 | 0.49 | 0.49 | 93 | 1017.0 |
| 20260901190650 | 64 | 93 | 1.0 | 2.0 | 0.29 | 0.47 | 0.48 | 93 | 1017.0 |
| 20260901185651 | 64 | 48 | 1.0 | 4.0 | 0.28 | 0.45 | 0.46 | 93 | 1017.0 |
| 20260901184650 | 64 | 44 | 1.0 | 5.0 | 0.23 | 0.40 | 0.40 | 93 | 1017.0 |
| 20260901183650 | 64 | 15 | 1.0 | 3.0 | 0.15 | 0.32 | 0.33 | 93 | 1017.2 |
| 20260901182648 | 64 | 39 | 1.0 | 3.0 | 0.10 | 0.27 | 0.27 | 93 | 1017.2 |
| 20260901181647 | 64 | 28 | 0.0 | 3.0 | 0.04 | 0.21 | 0.21 | 93 | 1017.2 |
| 20260901181130 | 64 | 33 | 0.0 | 3.0 | 0.02 | 0.18 | 0.18 | 93 | 1017.0 |
| 20260901180137 | 64 | 47 | 0.0 | 0.0 | 0.01 | 0.17 | 0.17 | 93 | 1016.7 |
| 20260901174648 | 64 | 47 | 0.0 | 2.0 | 0.02 | 0.17 | 0.17 | 93 | 1016.7 |
| 20260901173647 | 64 | 52 | 0.0 | 3.0 | 0.04 | 0.17 | 0.17 | 93 | 1016.5 |
| 20260901172649 | 65 | 85 | 1.0 | 4.0 | 0.04 | 0.17 | 0.17 | 92 | 1016.6 |
| 20260901171649 | 65 | 67 | 1.0 | 4.0 | 0.04 | 0.17 | 0.17 | 92 | 1016.6 |
| 20260901170646 | 65 | 85 | 1.0 | 4.0 | 0.03 | 0.16 | 0.16 | 93 | 1016.5 |
| 20260901165645 | 65 | 43 | 0.0 | 0.0 | 0.03 | 0.16 | 0.16 | 93 | 1016.8 |
| 20260901164645 | 65 | 43 | 0.0 | 0.0 | 0.02 | 0.15 | 0.15 | 93 | 1016.8 |
| 20260901163646 | 65 | 43 | 0.0 | 3.0 | 0.00 | 0.13 | 0.13 | 93 | 1017.0 |
| 20260901162648 | 65 | 40 | 0.0 | 0.0 | 0.00 | 0.13 | 0.13 | 93 | 1017.0 |
| 20260901161635 | 66 | 23 | 1.0 | 3.0 | 0.00 | 0.13 | 0.13 | 93 | 1017.0 |
| 20260901160636 | 66 | 39 | 0.0 | 0.0 | 0.00 | 0.13 | 0.13 | 93 | 1016.6 |
| 20260901155635 | 66 | 39 | 0.0 | 0.0 | 0.00 | 0.13 | 0.13 | 93 | 1016.6 |
| 20260901154637 | 66 | 37 | 0.0 | 2.0 | 0.00 | 0.13 | 0.13 | 93 | 1016.6 |
| 20260901153637 | 66 | 38 | 1.0 | 3.0 | 0.00 | 0.13 | 0.13 | 93 | 1016.6 |
| 20260901153605 | 66 | 75 | 0.0 | 2.0 | 0.00 | 0.13 | 0.13 | 93 | 1016.7 |
| 20260901152540 | 66 | 47 | 0.0 | 0.0 | 0.00 | 0.13 | 0.13 | 93 | 1016.7 |
| 20260901150630 | 66 | 42 | 1.0 | 3.0 | 0.00 | 0.13 | 0.13 | 93 | 1017.0 |
| 20260901145634 | 67 | 41 | 0.0 | 3.0 | 0.00 | 0.13 | 0.13 | 93 | 1016.6 |
| 20260901144630 | 67 | 170 | 0.0 | 1.0 | 0.00 | 0.13 | 0.13 | 93 | 1016.6 |
| 20260901143627 | 66 | 171 | 0.0 | 1.0 | 0.00 | 0.13 | 0.13 | 93 | 1016.7 |
| 20260901142627 | 66 | 173 | 0.0 | 2.0 | 0.00 | 0.13 | 0.13 | 93 | 1016.8 |
| 20260901141627 | 66 | 184 | 0.0 | 1.0 | 0.00 | 0.13 | 0.13 | 93 | 1016.8 |
| 20260901141555 | 66 | 185 | 0.0 | 1.0 | 0.00 | 0.13 | 0.13 | 93 | 1016.7 |
| 20260901135624 | 66 | 185 | 0.0 | 0.0 | 0.01 | 0.13 | 0.13 | 93 | 1016.9 |
| 20260901134625 | 65 | 185 | 0.0 | 1.0 | 0.02 | 0.13 | 0.13 | 93 | 1016.9 |
| 20260901133620 | 65 | 185 | 0.0 | 0.0 | 0.03 | 0.13 | 0.13 | 93 | 1017.0 |
| 20260901133054 | 65 | 185 | 0.0 | 0.0 | 0.06 | 0.13 | 0.13 | 92 | 1017.2 |
| 20260901131615 | 65 | 185 | 0.0 | 1.0 | 0.09 | 0.13 | 0.13 | 92 | 1017.2 |
| 20260901130613 | 65 | 185 | 0.0 | 1.0 | 0.10 | 0.13 | 0.13 | 92 | 1017.3 |
| 20260901125614 | 65 | 185 | 0.0 | 1.0 | 0.10 | 0.12 | 0.12 | 92 | 1017.0 |
| 20260901124613 | 65 | 185 | 0.0 | 1.0 | 0.09 | 0.11 | 0.11 | 92 | 1017.0 |
| 20260901123613 | 65 | 185 | 0.0 | 0.0 | 0.08 | 0.10 | 0.10 | 91 | 1017.2 |
| 20260901122611 | 65 | 185 | 0.0 | 0.0 | 0.05 | 0.07 | 0.07 | 91 | 1017.5 |
| 20260901121613 | 65 | 185 | 0.0 | 0.0 | 0.01 | 0.03 | 0.04 | 91 | 1017.5 |
| 20260901121051 | 65 | 185 | 0.0 | 0.0 | 0.01 | 0.03 | 0.03 | 91 | 1017.3 |
| 20260901115608 | 65 | 185 | 0.0 | 0.0 | 0.00 | 0.02 | 0.02 | 91 | 1017.3 |
| 20260901114607 | 65 | 185 | 0.0 | 0.0 | 0.00 | 0.02 | 0.02 | 91 | 1017.3 |
| 20260901113606 | 65 | 185 | 0.0 | 0.0 | 0.00 | 0.02 | 0.02 | 91 | 1017.4 |
| 20260901113049 | 65 | 185 | 0.0 | 1.0 | 0.01 | 0.02 | 0.02 | 91 | 1017.0 |
| 20260901112039 | 65 | 185 | 0.0 | 0.0 | 0.01 | 0.02 | 0.02 | 90 | 1017.0 |
| 20260901110559 | 65 | 185 | 0.0 | 0.0 | 0.01 | 0.02 | 0.02 | 90 | 1017.0 |
| 20260901110036 | 65 | 185 | 0.0 | 0.0 | 0.01 | 0.02 | 0.02 | 90 | 1016.9 |
| 20260901104600 | 65 | 185 | 0.0 | 0.0 | 0.02 | 0.02 | 0.02 | 90 | 1016.9 |
| 20260901103559 | 65 | 185 | 0.0 | 0.0 | 0.02 | 0.02 | 0.02 | 90 | 1016.5 |
| 20260901103039 | 65 | 185 | 0.0 | 0.0 | 0.01 | 0.01 | 0.01 | 89 | 1016.5 |
| 20260901101601 | 65 | 185 | 0.0 | 0.0 | 0.01 | 0.01 | 0.01 | 89 | 1016.5 |
| 20260901101040 | 65 | 185 | 0.0 | 0.0 | 0.01 | 0.01 | 0.01 | 88 | 1016.5 |
| 20260901095555 | 65 | 185 | 0.0 | 0.0 | 0.01 | 0.01 | 0.01 | 88 | 1016.5 |
| 20260901094556 | 66 | 185 | 0.0 | 0.0 | 0.00 | 0.00 | 0.00 | 87 | 1016.5 |
| 20260901093557 | 66 | 185 | 0.0 | 0.0 | 0.00 | 0.00 | 0.00 | 87 | 1016.5 |
| 20260901093030 | 66 | 185 | 0.0 | 3.0 | 0.00 | 0.00 | 0.00 | 85 | 1016.5 |
| 20260901091552 | 66 | 179 | 0.0 | 3.0 | 0.00 | 0.00 | 0.00 | 84 | 1016.5 |
| 20260901090551 | 66 | 180 | 0.0 | 0.0 | 0.00 | 0.00 | 0.00 | 84 | 1016.4 |
| 20260901085549 | 66 | 181 | 0.0 | 0.0 | 0.00 | 0.00 | 0.00 | 84 | 1016.4 |
| 20260901084549 | 66 | 181 | 0.0 | 0.0 | 0.00 | 0.00 | 0.00 | 84 | 1016.4 |
| 20260901083548 | 66 | 181 | 0.0 | 2.0 | 0.00 | 0.00 | 0.00 | 84 | 1016.3 |
| 20260901083042 | 66 | 181 | 0.0 | 3.0 | 0.00 | 0.00 | 0.00 | 84 | 1016.4 |
| 20260901081546 | 66 | 183 | 0.0 | 0.0 | 0.00 | 0.00 | 0.00 | 84 | 1016.4 |
| 20260901080548 | 66 | 183 | 0.0 | 0.0 | 0.00 | 0.00 | 0.00 | 84 | 1016.4 |
| 20260901075538 | 66 | 184 | 0.0 | 4.0 | 0.00 | 0.00 | 0.00 | 84 | 1016.5 |
| 20260901074540 | 66 | 189 | 0.0 | 0.0 | 0.00 | 0.00 | 0.00 | 84 | 1016.5 |
| 20260901073540 | 66 | 189 | 0.0 | 0.0 | 0.00 | 0.00 | 0.00 | 84 | 1016.7 |
| 20260901072539 | 67 | 189 | 0.0 | 0.0 | 0.00 | 0.00 | 0.00 | 84 | 1016.8 |
| 20260901072020 | 67 | 189 | 0.0 | 0.0 | 0.00 | 0.00 | 0.00 | 84 | 1016.8 |
| 20260901070537 | 67 | 189 | 0.0 | 0.0 | 0.00 | 0.00 | 0.00 | 84 | 1017.0 |
| 20260901070026 | 67 | 189 | 0.0 | 0.0 | 0.00 | 0.00 | 0.00 | 84 | 1017.0 |
| 20260901064536 | 67 | 189 | 0.0 | 0.0 | 0.00 | 0.00 | 0.00 | 84 | 1017.0 |
| 20260901063537 | 67 | 189 | 0.0 | 0.0 | 0.00 | 0.00 | 0.00 | 84 | 1017.0 |
| 20260901062537 | 67 | 189 | 0.0 | 0.0 | 0.00 | 0.00 | 0.00 | 84 | 1017.0 |
| 20260901061538 | 67 | 189 | 0.0 | 0.0 | 0.00 | 0.00 | 0.00 | 85 | 1017.0 |
| 20260901060537 | 67 | 189 | 0.0 | 0.0 | 0.00 | 0.00 | 0.00 | 85 | 1017.2 |
| 20260901055537 | 67 | 189 | 0.0 | 0.0 | 0.00 | 0.00 | 0.00 | 85 | 1017.2 |
| 20260901054536 | 67 | 189 | 0.0 | 0.0 | 0.00 | 0.00 | 0.00 | 85 | 1017.2 |
| 20260901054022 | 67 | 189 | 0.0 | 0.0 | 0.00 | 0.00 | 0.00 | 85 | 1017.2 |
| 20260901052537 | 67 | 188 | 0.0 | 0.0 | 0.00 | 0.00 | 0.00 | 85 | 1017.2 |
| 20260901051535 | 67 | 188 | 0.0 | 0.0 | 0.00 | 0.00 | 0.00 | 85 | 1017.2 |
| 20260901050536 | 67 | 188 | 0.0 | 0.0 | 0.00 | 0.00 | 0.00 | 85 | 1017.0 |
| 20260901045535 | 67 | 188 | 0.0 | 0.0 | 0.00 | 0.00 | 0.00 | 84 | 1017.0 |
| 20260901044535 | 67 | 188 | 0.0 | 0.0 | 0.00 | 0.00 | 0.00 | 85 | 1017.0 |
| 20260901044022 | 67 | 200 | 0.0 | 0.0 | 0.00 | 0.00 | 0.00 | 84 | 1017.0 |
| 20260901042536 | 67 | 208 | 0.0 | 0.0 | 0.00 | 0.00 | 0.00 | 84 | 1017.2 |
| 20260901041525 | 66 | 200 | 0.0 | 0.0 | 0.00 | 0.00 | 0.00 | 84 | 1017.2 |
| 20260901040525 | 66 | 200 | 0.0 | 0.0 | 0.00 | 0.00 | 0.00 | 83 | 1017.0 |
| 20260901035522 | 66 | 200 | 0.0 | 0.0 | 0.00 | 0.00 | 0.00 | 83 | 1017.2 |
| 20260901034522 | 66 | 200 | 0.0 | 0.0 | 0.00 | 0.00 | 0.00 | 84 | 1017.2 |
| 20260901033523 | 66 | 200 | 0.0 | 0.0 | 0.00 | 0.00 | 0.00 | 84 | 1017.3 |
| 20260901032522 | 66 | 200 | 0.0 | 0.0 | 0.00 | 0.00 | 0.00 | 84 | 1017.4 |
| 20260901031523 | 66 | 200 | 0.0 | 0.0 | 0.00 | 0.00 | 0.00 | 84 | 1017.4 |
| 20260901030520 | 66 | 200 | 0.0 | 0.0 | 0.00 | 0.00 | 0.00 | 84 | 1017.2 |
| 20260901025521 | 66 | 252 | 0.0 | 0.0 | 0.00 | 0.00 | 0.00 | 84 | 1017.0 |
| 20260901024519 | 66 | 252 | 0.0 | 0.0 | 0.00 | 0.00 | 0.00 | 85 | 1017.0 |
| 20260901023520 | 66 | 252 | 0.0 | 0.0 | 0.00 | 0.00 | 0.00 | 85 | 1017.2 |
| 20260901022519 | 66 | 252 | 0.0 | 0.0 | 0.00 | 0.00 | 0.00 | 84 | 1017.0 |
| 20260901021522 | 66 | 252 | 0.0 | 0.0 | 0.00 | 0.00 | 0.00 | 84 | 1017.0 |
| 20260901020511 | 66 | 252 | 0.0 | 0.0 | 0.00 | 0.00 | 0.00 | 83 | 1017.0 |
| 20260901015510 | 67 | 252 | 0.0 | 0.0 | 0.00 | 0.00 | 0.00 | 83 | 1017.0 |
| 20260901014510 | 67 | 252 | 0.0 | 0.0 | 0.00 | 0.00 | 0.00 | 82 | 1017.0 |
| 20260901013510 | 67 | 252 | 0.0 | 0.0 | 0.00 | 0.00 | 0.00 | 82 | 1017.3 |
| 20260901012509 | 67 | 252 | 0.0 | 0.0 | 0.00 | 0.00 | 0.00 | 82 | 1017.5 |
| 20260901011511 | 67 | 252 | 0.0 | 0.0 | 0.00 | 0.00 | 0.00 | 81 | 1017.5 |
| 20260901010505 | 68 | 252 | 0.0 | 0.0 | 0.00 | 0.00 | 0.00 | 81 | 1017.5 |
| 20260901005504 | 68 | 252 | 0.0 | 0.0 | 0.00 | 0.00 | 0.00 | 81 | 1017.3 |
| 20260901004503 | 68 | 252 | 0.0 | 0.0 | 0.00 | 0.00 | 0.00 | 80 | 1017.3 |
| 20260901003505 | 69 | 252 | 0.0 | 0.0 | 0.00 | 0.00 | 0.00 | 79 | 1017.2 |
| 20260901002504 | 69 | 252 | 0.0 | 0.0 | 0.00 | 0.00 | 0.00 | 78 | 1017.0 |
| 20260901001505 | 69 | 252 | 0.0 | 0.0 | 0.00 | 0.00 | 0.00 | 77 | 1017.0 |
| 20260901000458 | 70 | 252 | 0.0 | 0.0 | 0.00 | 0.00 | 0.00 | 76 | 1017.0 |
| 20260831235454 | 70 | 252 | 0.0 | 0.0 | 0.00 | 0.00 | 0.00 | 76 | 1017.0 |
| 20260831234453 | 71 | 252 | 0.0 | 0.0 | 0.00 | 0.00 | 0.00 | 76 | 1017.0 |
| 20260831233928 | 71 | 252 | 0.0 | 0.0 | 0.00 | 0.00 | 0.00 | 74 | 1017.3 |
| 20260831232939 | 72 | 252 | 0.0 | 0.0 | 0.00 | 0.00 | 0.00 | 73 | 1017.4 |
| 20260831231452 | 72 | 252 | 0.0 | 0.0 | 0.00 | 0.00 | 0.00 | 72 | 1017.6 |
| 20260831230453 | 73 | 252 | 0.0 | 0.0 | 0.00 | 0.00 | 0.00 | 70 | 1017.6 |
| 20260831225452 | 73 | 252 | 0.0 | 0.0 | 0.00 | 0.00 | 0.00 | 69 | 1017.7 |
| 20260831224931 | 73 | 252 | 0.0 | 0.0 | 0.00 | 0.00 | 0.00 | 67 | 1017.7 |
| 20260831223450 | 74 | 252 | 0.0 | 0.0 | 0.00 | 0.00 | 0.00 | 66 | 1017.7 |
| 20260831223420 | 74 | 173 | 0.0 | 0.0 | 0.00 | 0.00 | 0.00 | 66 | 1017.7 |
| 20260831221438 | 74 | 206 | 0.0 | 3.0 | 0.00 | 0.00 | 0.00 | 65 | 1017.6 |
| 20260831220917 | 74 | 156 | 0.0 | 4.0 | 0.00 | 0.00 | 0.00 | 65 | 1017.6 |
| 20260831215439 | 75 | 177 | 0.0 | 5.0 | 0.00 | 0.00 | 0.00 | 65 | 1017.5 |
| 20260831214439 | 75 | 200 | 0.0 | 4.0 | 0.00 | 0.00 | 0.00 | 65 | 1017.6 |
| 20260831213438 | 75 | 170 | 0.0 | 5.0 | 0.00 | 0.00 | 0.00 | 65 | 1017.6 |
| 20260831212917 | 75 | 205 | 0.0 | 4.0 | 0.00 | 0.00 | 0.00 | 64 | 1017.7 |
| 20260831211428 | 75 | 110 | 0.0 | 1.0 | 0.00 | 0.00 | 0.00 | 64 | 1017.7 |
| 20260831210427 | 75 | 145 | 0.0 | 3.0 | 0.00 | 0.00 | 0.00 | 64 | 1017.7 |
| 20260831205428 | 76 | 192 | 1.0 | 5.0 | 0.00 | 0.00 | 0.00 | 64 | 1017.8 |